Trenton, NJ

2:37 PM EST on December 08, 2019 (GMT -0500)
Trenton Mercer

Weather History for KTTN - October, 2019

Change the Weather History Date:

Thursday, October 10, 2019

  Actual Average Record
Temperature  
Mean Temperature 62 °F 56 °F  
Max Temperature 73 °F 67 °F 89 °F (1939)
Min Temperature 50 °F 46 °F 32 °F (1895)
Degree Days  
Heating Degree Days 3 9  
Month to date heating degree days 49 75  
Since 1 July heating degree days 67 140  
Cooling Degree Days 0 0  
Month to date cooling degree days 26 7  
Year to date cooling degree days 1163 962  
Growing Degree Days 12 (Base 50)    
Moisture  
Dew Point 43 °F    
Average Humidity 55    
Maximum Humidity 83    
Minimum Humidity 30    
Precipitation  
Precipitation 0.00 in 0.15 in 2.15 in (1871)
Month to date precipitation 0.90 1.52  
Year to date precipitation 39.56 36.77  
Sea Level Pressure  
Sea Level Pressure 30.17 in    
Wind  
Wind Speed 8 mph ()    
Max Wind Speed 17 mph    
Max Gust Speed 23 mph    
Visibility 10.0 miles    
Events      
T = Trace of Precipitation, MM = Missing Value Source: Averaged Metar Reports

Daily Weather History Graph

Daily Weather History Graph

Search for Another Location

Airport or City:

Astronomy

Oct. 10, 2019 Rise Set
Actual Time 7:04 AM EDT 6:27 PM EDT
Civil Twilight 6:37 AM EDT 6:54 PM EDT
Nautical Twilight 6:05 AM EDT 7:26 PM EDT
Astronomical Twilight 5:34 AM EDT 7:57 PM EDT
Moon 5:28 PM EDT (10/10) 3:45 AM EDT (10/10)
Length of Visible Light 12h 17m
Length of Day
11h 22m
Waxing Gibbous, 91% of the Moon is Illuminated
Oct 10
Waxing Gibbous
Oct 13
Full
Oct 21
Last Quarter
Oct 27
New
Nov 4
First Quarter

Hourly Weather History & Observations

Time (EDT) Temp. Dew Point Humidity Pressure Visibility Wind Dir Wind Speed Gust Speed Precip Events Conditions
12:53 AM 52.0 °F 46.0 °F 80% 30.22 in 10.0 mi North 6.9 mph - N/A   Overcast
1:53 AM 52.0 °F 46.0 °F 80% 30.22 in 10.0 mi North 11.5 mph 16.1 mph N/A   Overcast
2:53 AM 52.0 °F 45.0 °F 77% 30.21 in 10.0 mi North 9.2 mph - N/A   Overcast
3:53 AM 52.0 °F 44.1 °F 74% 30.20 in 10.0 mi North 8.1 mph - N/A   Overcast
4:53 AM 52.0 °F 44.1 °F 74% 30.20 in 10.0 mi North 6.9 mph - N/A   Mostly Cloudy
5:53 AM 51.1 °F 45.0 °F 80% 30.21 in 10.0 mi North 6.9 mph - N/A   Overcast
6:53 AM 52.0 °F 44.1 °F 74% 30.21 in 10.0 mi North 8.1 mph - N/A   Overcast
7:53 AM 54.0 °F 45.0 °F 72% 30.20 in 10.0 mi North 11.5 mph - N/A   Overcast
8:53 AM 57.0 °F 46.0 °F 67% 30.21 in 10.0 mi North 10.4 mph - N/A   Overcast
9:53 AM 59.0 °F 46.9 °F 64% 30.21 in 10.0 mi North 13.8 mph - N/A   Overcast
10:53 AM 60.1 °F 46.0 °F 60% 30.20 in 10.0 mi North 8.1 mph - N/A   Overcast
11:53 AM 63.0 °F 46.9 °F 56% 30.19 in 10.0 mi North 11.5 mph - N/A   Overcast
12:53 PM 66.9 °F 46.9 °F 49% 30.17 in 10.0 mi North 12.7 mph - N/A   Overcast
1:53 PM 71.1 °F 46.0 °F 41% 30.14 in 10.0 mi NNE 12.7 mph 19.6 mph N/A   Clear
2:53 PM 72.0 °F 45.0 °F 38% 30.14 in 10.0 mi North 9.2 mph - N/A   Clear
3:53 PM 73.0 °F 43.0 °F 34% 30.13 in 10.0 mi North 11.5 mph 20.7 mph N/A   Scattered Clouds
4:53 PM 72.0 °F 39.0 °F 30% 30.13 in 10.0 mi NNE 12.7 mph - N/A   Clear
5:53 PM 68.0 °F 39.0 °F 35% 30.14 in 10.0 mi NNE 6.9 mph 23.0 mph N/A   Clear
6:53 PM 66.0 °F 37.9 °F 36% 30.14 in 10.0 mi NNE 6.9 mph - N/A   Clear
7:53 PM 64.0 °F 37.9 °F 38% 30.14 in 10.0 mi North 10.4 mph - N/A   Scattered Clouds
8:53 PM 61.0 °F 37.9 °F 42% 30.14 in 10.0 mi North 8.1 mph - N/A   Clear
9:53 PM 59.0 °F 39.0 °F 48% 30.13 in 10.0 mi North 6.9 mph - N/A   Clear
10:53 PM 60.1 °F 39.0 °F 46% 30.14 in 10.0 mi North 9.2 mph - N/A   Overcast
11:53 PM 60.1 °F 32.0 °F 35% 30.14 in 10.0 mi NNE 11.5 mph - N/A   Overcast